User: anonymous
Location: Parc des �les de St-Timoth�e
(45.2924°N, 74.0481°W)
Time: 03:29:05
(UTC-04:00)
Language:

Cosmos 2173 Rocket - Orbit

View from above orbital plane
View from above orbital plane
View from above satellite
View from above satellite

Ground track
Ground track

The orbit data is extracted from the following two-line orbital elements,

1 21797U 91081B   14234.28492450  .00000101  00000-0  85529-4 0  5040
2 21797 082.9524 106.9653 0039441 094.0526 043.3823 13.77278648142626
Epoch (UTC): 22 August 2014 06:50:17
Eccentricity: 0.0039441
inclination: 82.9524°
perigee height: 944 km
apogee height: 1002 km
right ascension of ascending node: 106.9653°
argument of perigee: 94.0526°
revolutions per day: 13.77278648
mean anomaly at epoch: 43.3823°
orbit number at epoch: 14262

The dashed part of the orbit path shows where the satellite is in the earth's shadow,  

DLR